Weather History for KCNK - May, 2014

Change the Weather History Date:

Tuesday, May 13, 2014

  Actual Average Record
Temperature  
Mean Temperature 54 °F 62 °F  
Max Temperature 65 °F 73 °F 93 °F (1940)
Min Temperature 42 °F 51 °F 33 °F (1966)
Degree Days  
Heating Degree Days 11 5  
Month to date heating degree days 65 79  
Since 1 July heating degree days 5692 5343  
Cooling Degree Days 0 2  
Month to date cooling degree days 39 16  
Year to date cooling degree days 64 33  
Growing Degree Days 3 (Base 50)    
Moisture  
Dew Point 32 °F    
Average Humidity 52    
Maximum Humidity 76    
Minimum Humidity 27    
Precipitation  
Precipitation T in 0.13 in 1.68 in (1957)
Month to date precipitation 0.07 1.60  
Year to date precipitation 2.78 7.43  
Snow  
Snow 0.00 in 0.00 in T in (1995)
Month to date snowfall 0.0 0.0  
Year to date snowfall 16.9 13.7  
Since 1 July snowfall 23.2 20.2  
Snow Depth 0.00 in    
Sea Level Pressure  
Sea Level Pressure 30.24 in    
Wind  
Wind Speed 12 mph (NNW)    
Max Wind Speed 28 mph    
Max Gust Speed 35 mph    
Visibility 10 miles    
Events Rain    
T = Trace of Precipitation, MM = Missing Value Source: NWS Daily Summary

Daily Weather History Graph

Daily Weather History Graph

Search for Another Location

Airport or City:

Trip Planner

Search our weather history database for the weather conditions in past years. The results will help you decide how hot, cold, wet, or windy it might be!

Date:

Astronomy

May. 13, 2014 Rise Set
Actual Time 6:18 AM CDT 8:36 PM CDT
Civil Twilight 5:48 AM CDT 9:06 PM CDT
Nautical Twilight 5:10 AM CDT 9:43 PM CDT
Astronomical Twilight 4:30 AM CDT 10:24 PM CDT
Moon 7:39 PM CDT (5/13) 5:35 AM CDT (5/13)
Length of Visible Light 15h 18m
Length of Day
14h 17m
Waxing Gibbous, 99% of the Moon is Illuminated
May 13
Waxing Gibbous
May 14
Full
May 21
Last Quarter
May 28
New
Jun 5
First Quarter

Hourly Weather History & Observations

Time (CDT) Temp. Windchill Dew Point Humidity Pressure Visibility Wind Dir Wind Speed Gust Speed Precip Events Conditions
12:55 AM 46.4 °F 42.9 °F 37.4 °F 71% 30.18 in 10.0 mi WNW 6.9 mph - N/A   Overcast
1:55 AM 45.0 °F 39.7 °F 37.0 °F 74% 30.19 in 10.0 mi WNW 10.4 mph - N/A   Overcast
2:55 AM 44.1 °F 38.1 °F 37.0 °F 76% 30.19 in 10.0 mi WNW 11.5 mph - N/A   Overcast
3:55 AM 44.1 °F 38.6 °F 36.0 °F 73% 30.18 in 10.0 mi NW 10.4 mph - N/A   Overcast
4:55 AM 45.0 °F 38.9 °F 34.0 °F 65% 30.20 in 10.0 mi NW 12.7 mph - N/A   Overcast
5:55 AM 44.1 °F 37.1 °F 33.1 °F 65% 30.20 in 10.0 mi NW 15.0 mph - N/A   Clear
6:55 AM 42.1 °F 34.2 °F 33.1 °F 70% 30.21 in 10.0 mi NW 16.1 mph - 0.00 in Rain Light Rain
7:55 AM 46.4 °F 40.7 °F 33.8 °F 62% 30.22 in 10.0 mi NW 12.7 mph 20.7 mph N/A Rain Light Rain
8:55 AM 50.0 °F - 34.0 °F 54% 30.25 in 10.0 mi NNW 13.8 mph - 0.00 in   Clear
9:55 AM 54.0 °F - 32.0 °F 43% 30.28 in 10.0 mi NNW 15.0 mph - 0.00 in Rain Light Rain
10:55 AM 57.2 °F - 28.4 °F 33% 30.29 in 10.0 mi North 15.0 mph 28.8 mph N/A   Partly Cloudy
11:55 AM 59.0 °F - 26.1 °F 28% 30.29 in 10.0 mi NNW 25.3 mph 34.5 mph N/A   Clear
12:55 PM 59.0 °F - 28.0 °F 31% 30.29 in 10.0 mi North 19.6 mph 27.6 mph N/A   Scattered Clouds
1:55 PM 62.1 °F - 28.9 °F 29% 30.27 in 10.0 mi North 17.3 mph 28.8 mph N/A   Scattered Clouds
2:55 PM 64.0 °F - 30.0 °F 28% 30.27 in 10.0 mi NNW 18.4 mph 23.0 mph 0.00 in Rain Light Rain
3:55 PM 61.0 °F - 28.9 °F 30% 30.26 in 10.0 mi North 15.0 mph 21.9 mph 0.00 in   Mostly Cloudy
4:55 PM 62.1 °F - 28.9 °F 29% 30.25 in 10.0 mi NNW 13.8 mph - 0.00 in Rain Light Rain
5:55 PM 62.1 °F - 28.9 °F 29% 30.24 in 10.0 mi North 12.7 mph - 0.00 in   Partly Cloudy
6:55 PM 60.8 °F - 28.4 °F 29% 30.24 in 10.0 mi North 9.2 mph - N/A   Scattered Clouds
7:55 PM 59.0 °F - 28.9 °F 32% 30.25 in 10.0 mi North 8.1 mph - N/A   Clear
8:55 PM 55.0 °F - 30.9 °F 40% 30.27 in 10.0 mi NNE 4.6 mph - N/A   Clear
9:55 PM 52.0 °F - 30.9 °F 45% 30.28 in 10.0 mi Calm Calm - N/A   Clear
10:55 PM 51.1 °F - 32.0 °F 48% 30.30 in 10.0 mi Calm Calm - N/A   Clear
11:55 PM 48.9 °F - 32.0 °F 52% 30.30 in 10.0 mi WNW 3.5 mph - N/A   Clear